This is the latest recevied weather packets stored in our database for station/object KD0RIH. If no packets are shown the sender has not sent any weather packets the latest 10 day(s).
| Time | Temp. | Humidity | Pressure | Rain* | Wind** | Luminosity | Snow |
|---|---|---|---|---|---|---|---|
| 1777902664 | 20.56° C | 49% | 1003.6 hPa | 0 mm | - | 371 W/m² | - |
| 1777902362 | 20.56° C | 50% | 1003.4 hPa | 0 mm | - | 390 W/m² | - |
| 1777902058 | 20.56° C | 50% | 1003.5 hPa | 0 mm | - | 370 W/m² | - |
| 1777901757 | 20° C | 51% | 1003.5 hPa | 0 mm | - | 353 W/m² | - |
| 1777901454 | 20° C | 53% | 1003.2 hPa | 0 mm | - | 333 W/m² | - |
| 1777901151 | 19.44° C | 52% | 1003.5 hPa | 0 mm | - | 316 W/m² | - |
| 1777900849 | 19.44° C | 53% | 1003.3 hPa | 0 mm | - | 296 W/m² | - |
| 1777900546 | 18.89° C | 55% | 1003.4 hPa | 0 mm | - | 276 W/m² | - |
| 1777900243 | 18.89° C | 55% | 1003.4 hPa | 0 mm | - | 259 W/m² | - |
| 1777899939 | 18.89° C | 55% | 1003.4 hPa | 0 mm | - | 245 W/m² | - |
| 1777899637 | 18.89° C | 56% | 1003.4 hPa | 0 mm | - | 70 W/m² | - |
| 1777899333 | 18.33° C | 58% | 1003.6 hPa | 0 mm | - | 207 W/m² | - |
| 1777899031 | 17.78° C | 60% | 1003.5 hPa | 0 mm | - | 184 W/m² | - |
| 1777898728 | 17.22° C | 63% | 1003.3 hPa | 0 mm | - | 178 W/m² | - |
| 1777898425 | 17.22° C | 63% | 1003.5 hPa | 0 mm | - | 163 W/m² | - |
| 1777898123 | 16.67° C | 65% | 1003.7 hPa | 0 mm | - | 146 W/m² | - |
| 1777897820 | 16.67° C | 64% | 1003.6 hPa | 0 mm | - | 130 W/m² | - |
| 1777897516 | 16.67° C | 64% | 1003.7 hPa | 0 mm | - | 115 W/m² | - |
| 1777897211 | 16.11° C | 64% | 1003.7 hPa | 0 mm | - | 101 W/m² | - |
| 1777896908 | 16.11° C | 64% | 1003.8 hPa | 0 mm | - | 92 W/m² | - |
| 1777896605 | 16.11° C | 64% | 1003.7 hPa | 0 mm | - | 74 W/m² | - |
| 1777896302 | 15.56° C | 65% | 1003.7 hPa | 0 mm | - | 63 W/m² | - |
| 1777896000 | 15.56° C | 65% | 1003.7 hPa | 0 mm | - | 50 W/m² | - |
| 1777895698 | 15° C | 67% | 1003.9 hPa | 0 mm | - | 45 W/m² | - |
| 1777895394 | 15° C | 70% | 1003.8 hPa | 0 mm | - | 37 W/m² | - |
* Rain latest hour (hover to see other rain measurements)
** Current wind speed in m/s (hover to see current wind gust speed)